This is the latest recevied weather packets stored in our database for station/object K1WJY. If no packets are shown the sender has not sent any weather packets the latest 10 day(s).
| Time | Temp. | Humidity | Pressure | Rain* | Wind** | Luminosity | Snow |
|---|---|---|---|---|---|---|---|
| 1777666700 | 15.56° C | 54% | 1008.3 hPa | 0 mm | - | 209 W/m² | - |
| 1777666396 | 15.56° C | 53% | 1008.2 hPa | 0 mm | - | 217 W/m² | - |
| 1777666093 | 15.56° C | 54% | 1008.3 hPa | 0 mm | - | 288 W/m² | - |
| 1777665790 | 15° C | 56% | 1008.1 hPa | 0 mm | - | 314 W/m² | - |
| 1777665488 | 15.56° C | 54% | 1008.1 hPa | 0 mm | - | 209 W/m² | - |
| 1777665183 | 15.56° C | 56% | 1008.2 hPa | 0 mm | - | 287 W/m² | - |
| 1777664880 | 15.56° C | 55% | 1008 hPa | 0 mm | - | 254 W/m² | - |
| 1777664576 | 16.11° C | 53% | 1008 hPa | 0 mm | - | 493 W/m² | - |
| 1777664272 | 15.56° C | 55% | 1007.8 hPa | 0 mm | - | 311 W/m² | - |
| 1777663971 | 15° C | 56% | 1008.1 hPa | 0 mm | - | 298 W/m² | - |
| 1777663668 | 15.56° C | 56% | 1007.9 hPa | 0 mm | - | 406 W/m² | - |
| 1777663364 | 15.56° C | 58% | 1008.2 hPa | 0 mm | - | 313 W/m² | - |
| 1777663062 | 15.56° C | 58% | 1008.2 hPa | 0 mm | - | 273 W/m² | - |
| 1777662759 | 15.56° C | 59% | 1008.2 hPa | 0 mm | - | 259 W/m² | - |
| 1777662455 | 15.56° C | 57% | 1008.1 hPa | 0 mm | - | 304 W/m² | - |
| 1777662151 | 15.56° C | 59% | 1008.2 hPa | 0 mm | - | 304 W/m² | - |
| 1777661847 | 15.56° C | 58% | 1008.2 hPa | 0 mm | - | 629 W/m² | - |
| 1777661543 | 15° C | 60% | 1008.1 hPa | 0 mm | - | 259 W/m² | - |
| 1777661240 | 14.44° C | 58% | 1008.1 hPa | 0 mm | - | 231 W/m² | - |
| 1777660935 | 14.44° C | 58% | 1008.3 hPa | 0 mm | - | 240 W/m² | - |
| 1777660631 | 15° C | 59% | 1008 hPa | 0 mm | - | 258 W/m² | - |
| 1777660328 | 14.44° C | 60% | 1008.2 hPa | 0 mm | - | 241 W/m² | - |
| 1777660025 | 14.44° C | 62% | 1008.2 hPa | 0 mm | - | 192 W/m² | - |
| 1777659721 | 14.44° C | 62% | 1008.1 hPa | 0 mm | - | 200 W/m² | - |
| 1777659418 | 14.44° C | 61% | 1007.9 hPa | 0 mm | - | 200 W/m² | - |
* Rain latest hour (hover to see other rain measurements)
** Current wind speed in m/s (hover to see current wind gust speed)